Location: Unspecified
(0.0000°N, 0.0000°E)
Time: 11:53:23
(UTC+00:00)

Vanguard 2 Rocket - Pass Details

Date: 14 December 2017
Orbit: 553 x 3328 km, 32.9° (Epoch: 24 June)

Event Time Altitude Azimuth Distance (km) Brightness Sun altitude
Rises 19:36:52 0° 299° (WNW) 5,016 11.2 -23.3°
Reaches altitude 10° 19:41:51 10° 319° (NW) 4,554 10.6 -24.4°
Maximum altitude 19:49:26 17° 354° (N) 4,700 10.3 -26.1°
Enters shadow 19:55:16 14° 17° (NNE) 5,341 10.4 -27.4°
